Vorticity
7 14 11 5 4 14 7 17 16 7 21 23 20 14 14 16 15 12 13 14 16 27
10 4 8 9 14 15 17 5 14 14 10 6 10 13 15 18 17 16 16 12 14 9
8 6 12 7 16 6 8 -23 19 6 5 -1 4 11 16 16 15 13 12 11 14 13
9 9 11 10 5 14 -8 11 -2 27 10 16 11 11 8 19 21 15 13 14 16 16
7 7 6 9 -0 26 12 7 1 12 30 11 4 -6 12 16 17 14 12 8 5 7
9 9 6 -0 6 26 18 -17 45 31 -12 14 11 -1 10 18 15 10 9 10 10 10
14 5 -9 9 19 26 5 17 5 11 8 17 9 6 6 13 11 8 6 7 9 10
-4 5 18 26 1 2 8 14 15 10 10 9 -0 11 8 14 9 5 6 10 15 15
7 32 12 15 14 20 18 22 55 -6 28 9 4 6 12 8 6 5 11 16 13 13
18 12 12 15 20 18 31 24 -43 25 2 14 12 9 9 5 6 12 14 11 14 19
6 13 13 14 23 20 23 4 11 18 8 6 9 9 5 8 9 14 14 24 23 17
11 11 10 16 14 13 1 9 -2 6 7 10 11 7 8 6 14 16 21 23 18 15
10 12 14 19 16 12 17 14 6 7 11 9 8 8 8 11 13 18 25 16 15 17
12 11 16 19 22 20 8 9 9 9 10 9 7 10 7 11 13 21 16 12 13 17
Height
3111 3105 3098 3092 3087 3081 3075 3068 3061 3054 3048 3041 3036 3031 3025 3018 3013 3008 3003 2999 2995 2994
3102 3096 3090 3085 3079 3073 3067 3059 3051 3045 3039 3033 3027 3021 3015 3010 3004 2999 2994 2990 2987 2985
3093 3087 3081 3075 3069 3063 3057 3051 3043 3037 3031 3024 3018 3012 3006 3001 2995 2990 2986 2982 2979 2976
3086 3080 3072 3065 3058 3052 3047 3042 3035 3029 3023 3017 3011 3006 3000 2993 2986 2982 2978 2974 2970 2967
3076 3069 3062 3055 3050 3044 3037 3033 3025 3019 3014 3010 3004 2997 2991 2984 2978 2974 2969 2965 2961 2957
3067 3061 3054 3046 3040 3035 3028 3021 3013 3009 3004 2999 2994 2989 2981 2976 2971 2967 2962 2957 2952 2948
3059 3053 3045 3038 3030 3023 3018 3011 3006 2999 2994 2990 2986 2980 2974 2969 2965 2960 2954 2949 2943 2938
3051 3041 3032 3025 3019 3012 3005 3000 2996 2991 2987 2982 2978 2972 2967 2962 2957 2951 2945 2939 2932 2926
3040 3030 3022 3015 3008 3001 2994 2989 2985 2982 2979 2975 2970 2964 2960 2954 2948 2942 2934 2928 2922 2915
3029 3021 3013 3006 2999 2992 2986 2981 2979 2975 2972 2968 2962 2957 2952 2945 2939 2932 2925 2917 2910 2903
3019 3012 3005 2997 2991 2986 2981 2979 2975 2971 2967 2961 2957 2951 2946 2939 2931 2923 2916 2908 2900 2893
3010 3004 2997 2990 2985 2980 2977 2974 2970 2965 2961 2957 2952 2946 2939 2931 2924 2916 2908 2901 2894 2887
3002 2996 2990 2984 2979 2975 2972 2969 2965 2961 2956 2951 2946 2940 2933 2924 2916 2908 2901 2896 2889 2883
2995 2989 2983 2978 2974 2971 2967 2964 2960 2956 2952 2947 2941 2935 2927 2919 2910 2901 2896 2890 2884 2879